Vertical_Velocity
4 -1 4 0 2 2 2 1 1 1 -0 -6 2 -9 0 -0 -8 4 1 3 -2 -3 4 -6 -2 -0 2 5 1 7 6 9 -3 0 -2 1 4 2 5 2 3 5 1 3
-1 -1 6 5 -0 3 2 1 0 -2 -5 4 -3 -16 -9 -3 -9 -6 -0 4 2 1 -1 -1 -7 -2 -1 -1 4 9 4 1 6 -1 5 -2 6 6 6 6 6 3 3 4
1 -2 5 4 3 3 -2 3 7 0 -7 -4 1 -35 -14 8 -10 -10 1 3 4 -1 -1 -2 -3 -4 1 -4 -1 -2 3 6 10 -5 8 4 -3 3 2 2 3 1 1 2
-10 -1 -14 -3 -3 4 4 6 3 2 3 -5 4 -12 -22 -10 -4 -19 2 3 6 3 3 -4 -3 -5 2 -3 2 16 15 13 2 -14 -0 -2 1 3 4 4 7 4 3 2
-15 -1 -0 8 -26 7 -9 -2 -5 2 5 13 -5 11 -10 -8 -18 10 6 9 5 4 4 4 -2 2 6 -3 -2 14 -1 -3 9 3 -26 -2 -8 4 5 3 2 6 5 1
-2 -3 1 -17 3 1 -5 -2 9 5 11 13 -9 0 -5 -8 5 3 -0 -3 -3 -3 -1 -5 -8 -5 2 1 -2 3 5 -10 -3 3 -32 -4 -13 -4 -1 1 -2 13 4 3
-6 -4 2 6 5 17 38 10 0 12 12 -6 3 14 -35 -5 9 2 -4 0 -0 -0 -0 -3 1 -8 -0 -4 -6 1 4 1 -1 0 -7 -28 -0 -8 2 5 3 1 2 -0
-3 -29 -1 1 -1 -7 3 16 -15 -5 -1 -4 6 -2 -30 -3 1 -3 -10 -8 -2 -3 -3 -6 2 -3 -4 3 4 -6 -3 -1 -4 8 1 5 -9 -6 -4 3 5 3 -0 2
2 -13 -5 7 12 9 -24 11 -21 5 3 -1 -1 2 11 0 -7 -2 -5 -6 -1 -2 -2 -4 0 -2 -4 1 -0 -2 -1 0 6 6 -1 -5 -18 -0 -3 -2 8 3 3 5
-7 -15 2 6 10 1 -13 1 20 8 -1 1 -2 7 6 -5 -5 -4 -6 -9 -9 -2 -9 -6 -4 -3 -1 6 3 -1 5 1 8 7 -4 -18 -20 2 5 7 -1 -2 8 7
5 7 -23 3 15 4 2 10 11 1 4 -4 -0 3 5 -2 -2 -6 -1 -5 -6 -11 -11 -8 -6 -1 2 2 8 1 -5 0 5 -4 -6 -1 -8 -7 -1 7 1 -4 6 5
2 6 -3 -5 2 8 0 0 -1 -1 0 5 2 11 3 -2 -1 -9 -4 -4 -3 -3 -3 -4 1 7 -4 -0 1 7 -0 0 -1 5 -1 2 -1 -11 4 6 3 -4 4 5
-3 -6 -6 -8 -12 11 -14 -2 5 12 -0 5 -4 6 2 -1 1 -2 -6 5 -0 10 -1 2 2 5 8 2 -5 -3 5 -1 5 14 3 -24 17 14 7 8 4 2 4 -3
5 6 4 6 21 13 26 16 13 10 -5 8 4 -2 -2 0 1 -5 -5 11 6 8 0 2 3 13 9 4 9 10 5 3 5 1 1 -14 0 -17 22 11 5 8 4 1
-1 -3 -4 3 14 0 5 0 5 -18 10 -4 2 3 -0 5 -1 -9 -4 5 13 14 1 7 3 1 2 1 2 -1 4 5 1 4 -9 -19 -5 -11 9 6 6 4 -1 4
-4 -0 -1 7 8 9 -17 8 16 6 -2 2 -2 -2 -2 8 6 1 5 11 -0 0 7 3 2 1 -3 -2 3 5 -3 4 2 8 6 -4 -5 -8 28 2 7 3 7 1
-2 0 -1 -2 -2 8 -57 -4 7 4 6 8 -7 4 -4 4 8 9 2 5 0 -5 3 1 10 0 -2 3 -7 -0 6 13 3 7 -1 -4 -3 0 -5 3 4 4 0 -10
1 2 -0 -3 -0 -10 6 12 11 11 0 3 2 3 4 2 3 2 11 5 2 -2 3 -3 7 3 -3 4 0 -6 0 2 -0 3 10 1 -10 7 -5 3 6 7 -12 -2
2 -3 -3 -9 -4 -1 -7 -11 -1 12 -1 7 10 11 12 6 7 5 0 17 16 9 6 -3 -4 3 7 8 7 3 5 5 -12 -0 12 -2 -17 7 6 5 13 8 -3 -4
5 -4 -20 -7 -7 4 23 -5 -1 -8 -6 -2 8 10 1 15 -23 9 10 15 7 5 8 1 -4 10 -3 4 3 1 -0 2 -3 -1 1 2 1 9 12 17 7 -5 8 4
-7 -14 -6 -5 -2 1 15 8 -2 -29 -0 3 6 9 11 -8 -5 4 6 10 4 19 9 3 -0 -3 1 -2 2 -1 4 -4 -12 59 20 1 -6 9 23 -10 -5 3 4 1
3 -4 1 -6 -5 -4 -2 -5 -32 8 7 3 4 0 -6 -3 16 22 31 18 27 11 13 4 7 -1 9 14 3 3 -7 -3 -3 -1 -1 -4 6 13 33 -13 8 8 6 9
-23 -2 -4 -22 2 6 7 7 9 5 6 5 7 9 2 3 -2 -5 3 -2 -2 -5 -7 10 8 2 -1 -3 -5 2 -2 -8 -7 8 9 9 7 0 8 28 17 -4 3 5
7 3 -3 -8 11 6 7 4 2 3 0 3 4 4 4 5 -7 -5 -5 4 3 -5 1 -1 8 10 3 8 4 3 2 -4 3 -2 -0 13 -10 -0 -9 25 -0 -1 3 2
-0 4 7 7 8 4 5 5 1 0 5 1 4 -2 -6 -1 2 2 5 5 4 -3 2 -1 1 5 10 6 15 3 -8 -2 3 2 6 13 -1 5 3 9 22 16 -1 17
-2 -6 -8 -1 -0 5 2 1 5 1 -4 -5 -0 5 5 4 -2 -1 3 4 -2 1 -3 1 2 2 -9 3 8 2 8 7 7 -7 -2 -2 -11 3 7 13 19 10 -9 -1
Height
3051 3050 3046 3050 3052 3053 3056 3056 3056 3058 3063 3063 3064 3060 3062 3068 3072 3074 3077 3081 3084 3089 3096 3100 3104 3109 3113 3117 3121 3127 3131 3136 3140 3146 3149 3153 3158 3163 3167 3170 3173 3176 3179 3181
3045 3041 3045 3045 3046 3049 3049 3049 3050 3055 3058 3061 3058 3051 3054 3059 3062 3066 3069 3073 3077 3081 3087 3093 3097 3101 3105 3110 3116 3121 3126 3128 3133 3140 3146 3150 3156 3162 3165 3169 3171 3174 3177 3179
3035 3035 3038 3038 3040 3042 3041 3041 3048 3051 3054 3056 3055 3043 3046 3052 3055 3060 3063 3065 3069 3073 3078 3085 3090 3094 3100 3103 3109 3114 3120 3123 3128 3128 3140 3145 3151 3157 3161 3163 3166 3169 3172 3175
3027 3028 3031 3033 3033 3037 3034 3040 3043 3047 3052 3053 3055 3044 3039 3043 3047 3052 3056 3058 3061 3065 3070 3076 3083 3087 3091 3097 3104 3108 3112 3117 3120 3123 3132 3140 3146 3151 3155 3160 3164 3167 3169 3171
3021 3022 3023 3022 3024 3031 3029 3036 3038 3041 3044 3049 3050 3052 3032 3038 3039 3043 3048 3051 3054 3058 3063 3068 3075 3082 3087 3091 3096 3101 3105 3110 3116 3121 3126 3134 3140 3146 3152 3157 3160 3164 3166 3168
3015 3014 3011 3009 3014 3020 3027 3032 3033 3035 3040 3041 3040 3048 3025 3032 3034 3038 3043 3046 3049 3052 3057 3061 3068 3075 3079 3084 3087 3093 3099 3104 3110 3116 3120 3126 3133 3137 3145 3150 3155 3160 3163 3164
3007 3002 2999 3000 3002 3007 3015 3025 3027 3026 3027 3028 3032 3039 3021 3027 3029 3031 3034 3037 3040 3043 3048 3054 3059 3064 3069 3074 3078 3086 3093 3098 3104 3109 3110 3118 3122 3129 3139 3145 3150 3154 3157 3160
3007 2999 2997 2996 2996 2998 3000 3007 3012 3011 3016 3023 3027 3026 3020 3025 3026 3028 3030 3031 3033 3036 3040 3045 3052 3056 3060 3066 3070 3077 3084 3091 3097 3102 3107 3108 3113 3119 3132 3138 3144 3149 3153 3157
3008 2997 2991 2987 2986 2990 2989 2996 3005 3007 3011 3015 3017 3020 3023 3020 3021 3022 3023 3025 3025 3027 3031 3036 3043 3049 3053 3058 3062 3069 3077 3085 3090 3095 3095 3095 3102 3111 3122 3132 3138 3143 3148 3152
3008 2992 2983 2981 2978 2980 2985 2996 3006 3008 3011 3013 3012 3015 3016 3014 3015 3016 3018 3017 3017 3017 3021 3026 3034 3040 3045 3051 3056 3063 3069 3076 3083 3086 3085 3087 3096 3105 3115 3124 3131 3135 3141 3146
3006 3001 2983 2977 2975 2978 2987 2993 3000 3006 3005 3009 3010 3018 3016 3013 3012 3011 3011 3011 3010 3009 3011 3017 3025 3031 3036 3044 3049 3055 3060 3067 3072 3075 3077 3080 3082 3094 3104 3115 3123 3129 3134 3139
3005 2999 2988 2980 2982 2985 2991 2995 2999 3002 3006 3006 3011 3015 3013 3011 3009 3006 3004 3004 3003 3000 3003 3011 3016 3023 3026 3034 3039 3045 3052 3058 3065 3068 3071 3069 3074 3083 3094 3105 3116 3121 3126 3132
3008 3002 2991 2982 2986 2990 2993 2993 2999 3002 3005 3008 3013 3013 3011 3009 3007 3005 2999 2997 2994 2995 2997 3003 3007 3012 3018 3026 3033 3040 3045 3051 3057 3062 3059 3061 3064 3073 3085 3098 3107 3114 3119 3125
3011 3009 3006 3005 3006 2999 2998 2987 2998 3003 3006 3010 3014 3011 3008 3005 3002 2999 2995 2991 2990 2991 2991 2994 2999 3005 3012 3019 3025 3033 3038 3043 3049 3050 3052 3049 3053 3064 3076 3090 3100 3105 3112 3118
3015 3013 3011 3010 3009 2995 3001 3001 3003 3006 3012 3014 3013 3008 3005 3002 3000 2997 2991 2988 2987 2987 2989 2991 2993 2999 3007 3012 3017 3023 3029 3036 3040 3042 3045 3044 3047 3056 3070 3081 3091 3099 3106 3111
3018 3017 3014 3013 3011 3010 3008 3013 3015 3013 3014 3013 3011 3006 3002 3000 2998 2993 2988 2983 2984 2985 2986 2988 2991 2996 3001 3007 3011 3018 3023 3030 3034 3039 3042 3042 3037 3044 3062 3074 3083 3092 3098 3103
3020 3019 3018 3018 3015 3013 3008 3026 3028 3028 3024 3020 3012 3011 3001 2997 2994 2989 2985 2983 2983 2985 2985 2989 2993 2995 2998 3002 3006 3011 3018 3025 3031 3034 3037 3038 3037 3042 3056 3066 3075 3083 3090 3097
3022 3021 3022 3020 3019 3025 3041 3036 3033 3031 3026 3022 3017 3008 3001 2996 2992 2988 2983 2981 2981 2985 2986 2989 2993 2994 2996 3000 3004 3009 3013 3019 3023 3026 3029 3029 3031 3036 3049 3058 3067 3076 3083 3090
3026 3025 3026 3028 3030 3040 3037 3035 3033 3033 3030 3022 3016 3010 3003 2997 2995 2991 2986 2976 2979 2983 2985 2989 2991 2992 2994 2997 3001 3006 3010 3013 3016 3017 3020 3024 3027 3031 3038 3050 3057 3064 3075 3081
3033 3031 3030 3033 3038 3050 3051 3041 3035 3033 3030 3022 3018 3013 3006 3000 2992 2991 2984 2976 2985 2987 2988 2989 2990 2992 2994 2995 2998 3002 3006 3007 3008 3010 3013 3017 3019 3025 3034 3033 3046 3059 3068 3076
3040 3039 3039 3044 3047 3061 3057 3046 3041 3031 3048 3033 3025 3018 3012 3005 3009 3004 2994 2988 2985 2988 2990 2990 2989 2989 2991 2993 2995 2998 3000 3000 3000 2998 3004 3006 3013 3019 3024 3030 3042 3053 3061 3068
3052 3051 3050 3052 3056 3065 3061 3054 3043 3056 3050 3042 3036 3029 3021 3016 3013 3007 2999 2992 2988 2989 2990 2989 2990 2989 2986 2986 2989 2993 2993 2992 2992 2995 2998 3001 3003 3012 3017 3026 3036 3045 3053 3059
3063 3064 3062 3062 3073 3074 3069 3064 3064 3061 3056 3050 3044 3038 3033 3026 3019 3011 3005 3000 2996 2992 2992 2991 2991 2987 2986 2987 2989 2989 2988 2987 2988 2990 2992 2995 3001 3008 3014 3017 3029 3037 3045 3051
3074 3073 3071 3073 3078 3076 3074 3071 3068 3065 3061 3057 3052 3045 3040 3035 3031 3023 3015 3008 3004 3002 2999 2997 2995 2990 2989 2989 2987 2984 2985 2986 2982 2985 2988 2993 2999 3006 3010 3016 3022 3028 3036 3041
3081 3079 3079 3079 3081 3080 3078 3075 3073 3069 3066 3062 3057 3052 3046 3041 3036 3030 3025 3018 3012 3009 3006 3004 3000 2996 2993 2993 2991 2989 2988 2987 2983 2983 2987 2992 2997 3003 3007 3012 3016 3021 3029 3035
3087 3086 3084 3084 3084 3083 3081 3078 3076 3072 3067 3064 3060 3056 3052 3046 3041 3037 3031 3025 3022 3017 3016 3012 3006 3005 3002 2998 2996 2994 2993 2992 2990 2987 2986 2988 2993 2997 2999 3002 3009 3014 3022 3027